Date String (YYYY-MM-DD hh:mm:ss) UTC,Instrument flags,absolute air pressure of the measurement (hPa),sample flow rate (lpm),inlet stack bypass flow (lpm),air temperature of the measurement (°C),ambient temperature measured by the external sensor (°C),aerosol sample conditioner tube jacket temperature (°C),OPC LED temperature (°C),internal box temperature (°C),relative humidity of the measurement (%),span deviation,mass concentration of particles derived from Lorenz-Mie calculation of OPC scattering (μg/m³),mass concentration of particles derived from Lorenz-Mie calculation of OPC scattering (μg/m³),mass concentration of particles derived from Lorenz-Mie calculation of OPC scattering (μg/m³)
DateTimeUTC,F1_M11,P_M11,Q1_M11,Q2_M11,T1_M11,T2_M11,T3_M11,T4_M11,T5_M11,U1_M11,ZSPAN_M11,X0_M11,X2_M11,X1_M11
2023-10-01 02:00:00,SystemResetWarning,0826.9,5.00,000.00,028.2,027.0,000.0,036.6,030.1,18.9,0000.0,0010.84,0004.23,0003.36
2023-10-01 02:01:00,SystemResetWarning,0827.0,5.00,000.00,028.3,027.1,000.0,036.7,030.1,18.9,0000.0,0010.91,0004.25,0003.34
2023-10-01 02:02:00,SystemResetWarning,0826.9,4.99,000.00,028.3,027.1,000.0,036.7,030.2,18.8,0000.0,0011.29,0004.22,0003.32
2023-10-01 02:03:00,SystemResetWarning,0827.0,4.99,000.00,028.3,025.5,000.0,036.6,030.0,18.8,0000.0,0011.39,0004.15,0003.30
2023-10-01 02:04:00,SystemResetWarning,0826.9,5.00,000.00,028.2,024.6,000.0,036.6,029.9,18.8,0000.0,0010.93,0004.17,0003.30
2023-10-01 02:05:00,SystemResetWarning,0826.9,5.01,000.00,028.2,024.6,000.0,036.6,029.8,18.8,0000.0,0010.78,0004.14,0003.29
2023-10-01 02:06:00,SystemResetWarning,0826.8,5.00,000.00,028.1,024.9,000.0,036.6,029.7,19.0,0000.0,0010.70,0004.10,0003.29
2023-10-01 02:07:00,SystemResetWarning,0826.9,5.00,000.00,028.1,025.3,000.0,036.6,029.7,19.0,0000.0,0010.51,0004.05,0003.28
2023-10-01 02:08:00,SystemResetWarning,0826.9,5.01,000.00,028.1,025.7,000.0,036.6,029.8,19.0,0000.0,0009.75,0004.04,0003.29
2023-10-01 02:09:00,SystemResetWarning,0826.9,5.00,000.00,028.1,026.0,000.0,036.6,029.8,19.0,0000.0,0009.74,0004.05,0003.30
2023-10-01 02:10:00,SystemResetWarning,0827.0,5.00,000.00,028.1,026.3,000.0,036.6,029.9,18.9,0000.0,0009.59,0004.05,0003.30
2023-10-01 02:11:00,SystemResetWarning,0826.9,5.00,000.00,028.1,026.5,000.0,036.6,029.9,18.9,0000.0,0009.64,0004.09,0003.31
2023-10-01 02:12:00,SystemResetWarning,0826.9,5.00,000.00,028.1,026.7,000.0,036.6,030.0,18.8,0000.0,0010.13,0004.11,0003.33
2023-10-01 02:13:00,SystemResetWarning,0826.9,5.00,000.00,028.2,026.9,000.0,036.6,030.0,18.7,0000.0,0010.77,0004.16,0003.35
2023-10-01 02:14:00,SystemResetWarning,0826.8,5.00,000.00,028.2,027.0,000.0,036.6,030.1,18.6,0000.0,0010.79,0004.23,0003.37
2023-10-01 02:15:00,SystemResetWarning,0826.8,5.01,000.00,028.2,027.1,000.0,036.7,030.1,18.6,0000.0,0011.91,0004.26,0003.37
2023-10-01 02:16:00,SystemResetWarning,0826.8,5.00,000.00,028.3,026.9,000.0,036.7,030.1,18.5,0000.0,0012.33,0004.28,0003.38
2023-10-01 02:17:00,SystemResetWarning,0826.7,4.98,000.00,028.2,025.4,000.0,036.6,029.9,18.5,0000.0,0012.42,0004.26,0003.38
2023-10-01 02:18:00,SystemResetWarning,0826.8,5.01,000.00,028.2,024.5,000.0,036.6,029.8,18.6,0000.0,0012.73,0004.26,0003.36
2023-10-01 02:19:00,SystemResetWarning,0826.8,5.01,000.00,028.1,024.6,000.0,036.5,029.6,18.7,0000.0,0013.41,0004.27,0003.35
2023-10-01 02:20:00,SystemResetWarning,0826.7,5.00,000.00,028.0,024.9,000.0,036.6,029.6,18.8,0000.0,0014.33,0004.25,0003.32
2023-10-01 02:21:00,SystemResetWarning,0826.6,5.01,000.00,028.0,025.3,000.0,036.5,029.6,19.2,0000.0,0014.09,0004.20,0003.29
2023-10-01 02:22:00,SystemResetWarning,0826.6,5.00,000.00,028.0,025.6,000.0,036.5,029.7,19.3,0000.0,0014.04,0004.16,0003.28
2023-10-01 02:23:00,SystemResetWarning,0826.6,5.00,000.00,028.0,025.9,000.0,036.5,029.7,19.3,0000.0,0013.84,0004.14,0003.26
2023-10-01 02:24:00,SystemResetWarning,0826.6,5.00,000.00,028.0,026.2,000.0,036.5,029.8,19.2,0000.0,0013.36,0004.09,0003.23
2023-10-01 02:25:00,SystemResetWarning,0826.6,5.00,000.00,028.0,026.4,000.0,036.5,029.9,19.3,0000.0,0012.84,0004.04,0003.20
2023-10-01 02:26:00,SystemResetWarning,0826.7,5.00,000.00,028.1,026.6,000.0,036.6,029.9,19.3,0000.0,0012.16,0004.00,0003.17
2023-10-01 02:27:00,SystemResetWarning,0826.8,5.00,000.00,028.1,026.8,000.0,036.6,029.9,19.3,0000.0,0011.19,0003.92,0003.14
2023-10-01 02:28:00,SystemResetWarning,0826.8,5.00,000.00,028.1,026.9,000.0,036.6,030.0,19.2,0000.0,0011.28,0003.86,0003.11
2023-10-01 02:29:00,SystemResetWarning,0826.8,5.00,000.00,028.2,027.0,000.0,036.6,030.0,19.0,0000.0,0010.85,0003.80,0003.09
2023-10-01 02:30:00,SystemResetWarning,0826.8,5.00,000.00,028.2,027.1,000.0,036.6,030.1,19.0,0000.0,0010.99,0003.75,0003.06
2023-10-01 02:31:00,SystemResetWarning,0826.7,5.00,000.00,028.2,027.2,000.0,036.6,030.1,18.9,0000.0,0009.57,0003.69,0003.04
2023-10-01 02:32:00,SystemResetWarning,0826.6,4.98,000.00,028.3,026.2,000.0,036.6,030.0,18.9,0000.0,0009.13,0003.68,0003.05
2023-10-01 02:33:00,SystemResetWarning,0826.6,5.01,000.00,028.2,024.7,000.0,036.6,029.9,19.1,0000.0,0009.60,0003.67,0003.04
2023-10-01 02:34:00,SystemResetWarning,0826.6,5.01,000.00,028.1,024.5,000.0,036.5,029.8,19.1,0000.0,0009.97,0003.67,0003.03
2023-10-01 02:35:00,SystemResetWarning,0826.6,5.00,000.00,028.0,024.7,000.0,036.5,029.6,19.2,0000.0,0010.14,0003.66,0003.02
2023-10-01 02:36:00,SystemResetWarning,0826.6,5.00,000.00,028.0,025.0,000.0,036.5,029.6,19.3,0000.0,0010.09,0003.69,0003.04
2023-10-01 02:37:00,SystemResetWarning,0826.6,5.00,000.00,028.0,025.4,000.0,036.5,029.7,19.5,0000.0,0009.94,0003.67,0003.04
2023-10-01 02:38:00,SystemResetWarning,0826.6,4.99,000.00,028.0,025.7,000.0,036.5,029.7,19.4,0000.0,0010.28,0003.69,0003.03
2023-10-01 02:39:00,SystemResetWarning,0826.6,5.00,000.00,028.0,026.0,000.0,036.5,029.7,19.3,0000.0,0010.15,0003.72,0003.03
2023-10-01 02:40:00,SystemResetWarning,0826.6,5.00,000.00,028.0,026.2,000.0,036.5,029.8,19.2,0000.0,0010.06,0003.74,0003.05
2023-10-01 02:41:00,SystemResetWarning,0826.6,5.00,000.00,028.0,026.4,000.0,036.5,029.8,19.1,0000.0,0009.53,0003.75,0003.06
2023-10-01 02:42:00,SystemResetWarning,0826.6,4.99,000.00,028.1,026.6,000.0,036.5,029.9,19.0,0000.0,0009.50,0003.73,0003.05
2023-10-01 02:43:00,SystemResetWarning,0826.6,4.99,000.00,028.1,026.7,000.0,036.5,029.9,18.8,0000.0,0009.48,0003.71,0003.05
2023-10-01 02:44:00,SystemResetWarning,0826.6,5.01,000.00,028.1,026.9,000.0,036.6,030.0,18.8,0000.0,0008.86,0003.68,0003.04
2023-10-01 02:45:00,SystemResetWarning,0826.6,5.01,000.00,028.2,027.0,000.0,036.6,030.0,18.8,0000.0,0008.71,0003.64,0003.04
2023-10-01 02:46:00,SystemResetWarning,0826.6,5.00,000.00,028.2,027.1,000.0,036.6,030.0,18.9,0000.0,0008.35,0003.63,0003.04
2023-10-01 02:47:00,SystemResetWarning,0826.6,4.99,000.00,028.2,027.1,000.0,036.6,030.1,19.2,0000.0,0008.14,0003.58,0003.02
2023-10-01 02:48:00,SystemResetWarning,0826.6,4.99,000.00,028.3,026.9,000.0,036.6,030.1,19.0,0000.0,0008.18,0003.57,0003.02
2023-10-01 02:49:00,SystemResetWarning,0826.6,5.00,000.00,028.2,025.3,000.0,036.6,029.9,18.9,0000.0,0008.12,0003.55,0003.02
2023-10-01 02:50:00,SystemResetWarning,0826.6,5.01,000.00,028.2,024.4,000.0,036.5,029.8,19.2,0000.0,0008.33,0003.55,0003.02
2023-10-01 02:51:00,SystemResetWarning,0826.6,5.01,000.00,028.1,024.5,000.0,036.5,029.6,19.5,0000.0,0008.37,0003.56,0003.03
2023-10-01 02:52:00,SystemResetWarning,0826.6,5.00,000.00,028.0,024.8,000.0,036.5,029.5,19.5,0000.0,0008.42,0003.59,0003.05
2023-10-01 02:53:00,SystemResetWarning,0826.6,5.00,000.00,027.9,025.1,000.0,036.5,029.6,19.5,0000.0,0008.93,0003.61,0003.08
2023-10-01 02:54:00,SystemResetWarning,0826.6,5.01,000.00,027.9,025.5,000.0,036.5,029.6,19.3,0000.0,0008.88,0003.63,0003.09
2023-10-01 02:55:00,SystemResetWarning,0826.6,4.99,000.00,027.9,025.8,000.0,036.5,029.7,19.2,0000.0,0008.94,0003.63,0003.09
2023-10-01 02:56:00,SystemResetWarning,0826.6,4.99,000.00,027.9,026.0,000.0,036.5,029.7,19.3,0000.0,0008.84,0003.67,0003.11
2023-10-01 02:57:00,SystemResetWarning,0826.6,4.99,000.00,028.0,026.3,000.0,036.5,029.8,19.0,0000.0,0008.68,0003.69,0003.12
2023-10-01 02:58:00,SystemResetWarning,0826.6,4.99,000.00,028.0,026.4,000.0,036.5,029.8,18.9,0000.0,0008.71,0003.74,0003.14
2023-10-01 02:59:00,SystemResetWarning,0826.7,5.00,000.00,028.0,026.6,000.0,036.5,029.8,18.8,0000.0,0008.59,0003.77,0003.16
